This is the latest recevied weather packets stored in our database for station/object K5NAN. If no packets are shown the sender has not sent any weather packets the latest 10 day(s).
| Time | Temp. | Humidity | Pressure | Rain* | Wind** | Luminosity | Snow |
|---|---|---|---|---|---|---|---|
| 1777345537 | 21.11° C | 83% | 1010 hPa | 0 mm | - | 0 W/m² | - |
| 1777345233 | 21.11° C | 82% | 1009.7 hPa | 0 mm | - | 0 W/m² | - |
| 1777344929 | 21.11° C | 81% | 1009.9 hPa | 0 mm | - | 0 W/m² | - |
| 1777344626 | 21.11° C | 80% | 1010 hPa | 0 mm | - | 0 W/m² | - |
| 1777344323 | 21.11° C | 79% | 1009.8 hPa | 0 mm | - | 0 W/m² | - |
| 1777344020 | 21.67° C | 77% | 1009.4 hPa | 0 mm | - | 0 W/m² | - |
| 1777343717 | 21.67° C | 77% | 1009.4 hPa | 0 mm | - | 0 W/m² | - |
| 1777343415 | 21.67° C | 76% | 1009.3 hPa | 0 mm | - | 0 W/m² | - |
| 1777343113 | 22.22° C | 76% | 1009.2 hPa | 0 mm | - | 0 W/m² | - |
| 1777342809 | 22.22° C | 80% | 1009.2 hPa | 0 mm | - | 0 W/m² | - |
| 1777342506 | 22.78° C | 82% | 1009 hPa | 0 mm | - | 0 W/m² | - |
| 1777342203 | 22.78° C | 81% | 1009.4 hPa | 0 mm | - | 0 W/m² | - |
| 1777341899 | 22.78° C | 82% | 1009.2 hPa | 0 mm | - | 0 W/m² | - |
| 1777341595 | 22.78° C | 82% | 1009.7 hPa | 1.78 mm | - | 0 W/m² | - |
| 1777341291 | 23.33° C | 82% | 1009.4 hPa | 1.78 mm | - | 0 W/m² | - |
| 1777340988 | 23.89° C | 79% | 1008.4 hPa | 0 mm | - | 0 W/m² | - |
| 1777340686 | 23.89° C | 73% | 1008.6 hPa | 0 mm | - | 0 W/m² | - |
| 1777340384 | 25° C | 69% | 1008.5 hPa | 0 mm | - | 0 W/m² | - |
| 1777340081 | 25.56° C | 82% | 1008.4 hPa | 0 mm | - | 0 W/m² | - |
| 1777339778 | 25.56° C | 84% | 1008 hPa | 0 mm | - | 0 W/m² | - |
| 1777339476 | 26.11° C | 83% | 1008.1 hPa | 0 mm | - | 0 W/m² | - |
| 1777339173 | 26.11° C | 84% | 1008 hPa | 0 mm | - | 0 W/m² | - |
| 1777338871 | 26.11° C | 83% | 1008.1 hPa | 0 mm | - | 1 W/m² | - |
| 1777338568 | 26.11° C | 82% | 1007.7 hPa | 0 mm | - | 4 W/m² | - |
| 1777338266 | 26.67° C | 81% | 1007.5 hPa | 1.78 mm | - | 7 W/m² | - |
* Rain latest hour (hover to see other rain measurements)
** Current wind speed in m/s (hover to see current wind gust speed)